Time,TemperatureF,DewpointF,PressureIn,WindDirection,WindDirectionDegrees,WindSpeedMPH,WindSpeedGustMPH,Humidity,HourlyPrecipIn,Conditions,Clouds,dailyrainin,SoftwareType,DateUTC
2013-02-28 00:00:00,31.3,30.3,28.85,NNE,18,5.8,8.3,96,0.00,,---,0.00,VWS V14.01,2013-02-28 06:00:00,
2013-02-28 00:05:00,31.3,30.3,28.85,NE,36,9.2,10.1,96,0.00,,---,0.00,VWS V14.01,2013-02-28 06:05:00,
2013-02-28 00:10:00,31.5,30.5,28.85,NNW,344,5.8,6.3,96,0.00,,---,0.00,VWS V14.01,2013-02-28 06:10:00,
2013-02-28 00:15:00,31.5,29.7,28.85,NE,40,6.3,6.3,93,0.00,,---,0.00,VWS V14.01,2013-02-28 06:15:00,
2013-02-28 00:20:00,31.5,30.5,28.85,North,357,8.3,8.7,96,0.00,,---,0.00,VWS V14.01,2013-02-28 06:20:00,
2013-02-28 00:25:00,31.5,29.7,28.85,North,11,8.3,8.3,93,0.00,,---,0.00,VWS V14.01,2013-02-28 06:25:00,
2013-02-28 00:30:00,31.5,29.7,28.85,NE,47,7.6,10.5,93,0.00,,---,0.00,VWS V14.01,2013-02-28 06:30:00,
2013-02-28 00:35:00,31.6,29.9,28.85,NNE,13,8.3,8.3,93,0.00,,---,0.00,VWS V14.01,2013-02-28 06:35:00,
2013-02-28 00:40:00,31.6,29.9,28.85,NE,51,11.4,11.4,93,0.00,,---,0.00,VWS V14.01,2013-02-28 06:40:00,
2013-02-28 00:45:00,31.6,29.9,28.85,NE,41,10.5,10.5,93,0.00,,---,0.00,VWS V14.01,2013-02-28 06:45:00,
2013-02-28 00:50:00,31.6,29.9,28.85,North,1,13.2,13.2,93,0.00,,---,0.00,VWS V14.01,2013-02-28 06:50:00,
2013-02-28 00:55:00,31.6,29.9,28.85,North,353,5.8,7.6,93,0.00,,---,0.00,VWS V14.01,2013-02-28 06:55:00,
2013-02-28 01:00:00,31.6,29.9,28.85,North,10,5.8,5.8,93,0.00,,---,0.00,VWS V14.01,2013-02-28 07:00:00,
2013-02-28 01:05:00,31.6,29.9,28.85,North,5,8.1,15.0,93,0.00,,---,0.00,VWS V14.01,2013-02-28 07:05:00,
2013-02-28 01:10:00,31.6,29.9,28.85,NNE,29,5.8,8.3,93,0.00,,---,0.00,VWS V14.01,2013-02-28 07:10:00,
2013-02-28 01:14:00,31.6,29.9,28.85,North,7,7.6,8.3,93,0.00,,---,0.00,VWS V14.01,2013-02-28 07:14:00,
2013-02-28 01:19:00,31.5,29.7,28.85,NNE,13,7.6,7.6,93,0.00,,---,0.00,VWS V14.01,2013-02-28 07:19:00,
2013-02-28 01:24:00,31.5,29.7,28.85,NNE,28,7.6,10.5,93,0.00,,---,0.00,VWS V14.01,2013-02-28 07:24:00,
2013-02-28 01:29:00,31.5,29.7,28.85,NNE,29,5.4,5.4,93,0.00,,---,0.00,VWS V14.01,2013-02-28 07:29:00,
2013-02-28 01:34:00,31.5,29.7,28.85,North,10,7.2,8.7,93,0.00,,---,0.00,VWS V14.01,2013-02-28 07:34:00,
2013-02-28 01:39:00,31.5,29.7,28.85,NNE,24,7.6,8.1,93,0.00,,---,0.00,VWS V14.01,2013-02-28 07:39:00,
2013-02-28 01:44:00,31.5,29.7,28.85,NNE,17,8.7,8.7,93,0.00,,---,0.00,VWS V14.01,2013-02-28 07:44:00,
2013-02-28 01:49:00,31.5,29.7,28.85,NNE,32,8.1,8.3,93,0.00,,---,0.00,VWS V14.01,2013-02-28 07:49:00,
2013-02-28 01:54:00,31.5,29.7,28.85,NE,34,7.6,10.5,93,0.00,,---,0.00,VWS V14.01,2013-02-28 07:54:00,
2013-02-28 01:59:00,31.5,29.7,28.85,NE,46,5.4,6.3,93,0.00,,---,0.00,VWS V14.01,2013-02-28 07:59:00,
2013-02-28 02:04:00,31.5,29.7,28.85,NNE,23,8.7,10.5,93,0.00,,---,0.00,VWS V14.01,2013-02-28 08:04:00,
2013-02-28 02:09:00,31.5,29.7,28.85,North,7,8.3,8.3,93,0.00,,---,0.00,VWS V14.01,2013-02-28 08:09:00,
2013-02-28 02:14:00,31.5,29.7,28.88,NNE,20,8.7,11.0,93,0.00,,---,0.00,VWS V14.01,2013-02-28 08:14:00,
2013-02-28 02:19:00,31.5,29.7,28.88,NE,41,5.8,6.3,93,0.00,,---,0.00,VWS V14.01,2013-02-28 08:19:00,
2013-02-28 02:24:00,31.5,29.7,28.88,NE,48,7.6,7.6,93,0.00,,---,0.00,VWS V14.01,2013-02-28 08:24:00,
2013-02-28 02:29:00,31.5,29.7,28.88,NNE,14,8.3,8.3,93,0.00,,---,0.00,VWS V14.01,2013-02-28 08:29:00,
2013-02-28 02:34:00,31.5,29.7,28.88,NNE,29,10.5,10.5,93,0.00,,---,0.00,VWS V14.01,2013-02-28 08:34:00,
2013-02-28 02:39:00,31.5,29.7,28.88,NE,35,8.3,8.3,93,0.00,,---,0.00,VWS V14.01,2013-02-28 08:39:00,
2013-02-28 02:44:00,31.5,29.7,28.88,NNE,16,4.9,9.2,93,0.00,,---,0.00,VWS V14.01,2013-02-28 08:44:00,
2013-02-28 02:49:00,31.5,29.7,28.88,North,1,4.0,4.0,93,0.00,,---,0.00,VWS V14.01,2013-02-28 08:49:00,
2013-02-28 02:54:00,31.3,29.5,28.88,North,11,5.4,8.1,93,0.00,,---,0.00,VWS V14.01,2013-02-28 08:54:00,
2013-02-28 02:59:00,31.3,29.5,28.88,NE,49,5.4,10.1,93,0.00,,---,0.00,VWS V14.01,2013-02-28 08:59:00,
2013-02-28 03:04:00,31.3,29.5,28.88,NNE,31,3.6,6.3,93,0.00,,---,0.00,VWS V14.01,2013-02-28 09:04:00,
2013-02-28 03:09:00,31.3,29.5,28.88,NNE,13,8.1,8.1,93,0.00,,---,0.00,VWS V14.01,2013-02-28 09:09:00,
2013-02-28 03:14:00,31.1,30.1,28.88,NNE,28,5.4,8.7,96,0.00,,---,0.00,VWS V14.01,2013-02-28 09:14:00,
2013-02-28 03:19:00,31.1,30.1,28.88,NNW,330,4.9,6.3,96,0.00,,---,0.00,VWS V14.01,2013-02-28 09:19:00,
2013-02-28 03:24:00,31.1,30.1,28.88,NE,34,4.0,5.8,96,0.00,,---,0.00,VWS V14.01,2013-02-28 09:24:00,
2013-02-28 03:29:00,31.1,30.9,28.88,NE,44,4.0,6.7,99,0.00,,---,0.00,VWS V14.01,2013-02-28 09:29:00,
2013-02-28 03:34:00,30.9,30.9,28.88,North,6,5.4,8.1,100,0.00,,---,0.00,VWS V14.01,2013-02-28 09:34:00,
2013-02-28 03:39:00,30.9,30.9,28.88,NE,39,8.3,8.7,100,0.00,,---,0.00,VWS V14.01,2013-02-28 09:39:00,
2013-02-28 03:44:00,30.9,30.9,28.88,NNE,27,8.1,8.7,100,0.00,,---,0.00,VWS V14.01,2013-02-28 09:44:00,
2013-02-28 03:49:00,30.7,30.7,28.88,NNE,18,4.9,6.7,100,0.00,,---,0.00,VWS V14.01,2013-02-28 09:49:00,
2013-02-28 03:54:00,30.7,30.7,28.88,North,353,4.0,4.9,100,0.00,,---,0.00,VWS V14.01,2013-02-28 09:54:00,
2013-02-28 03:59:00,30.7,30.7,28.88,NNE,22,4.9,5.4,100,0.00,,---,0.00,VWS V14.01,2013-02-28 09:59:00,
2013-02-28 04:04:00,30.7,30.7,28.88,North,0,5.8,12.3,100,0.00,,---,0.00,VWS V14.01,2013-02-28 10:04:00,
2013-02-28 04:09:00,30.7,30.7,28.88,North,4,7.6,8.7,100,0.00,,---,0.00,VWS V14.01,2013-02-28 10:09:00,
2013-02-28 04:14:00,30.9,30.9,28.88,NNE,28,8.1,8.7,100,0.00,,---,0.00,VWS V14.01,2013-02-28 10:14:00,
2013-02-28 04:19:00,30.9,30.9,28.88,NNE,12,10.5,10.5,100,0.00,,---,0.00,VWS V14.01,2013-02-28 10:19:00,
2013-02-28 04:24:00,30.9,30.7,28.88,NNE,22,5.8,8.7,99,0.00,,---,0.00,VWS V14.01,2013-02-28 10:24:00,
2013-02-28 04:29:00,30.9,30.7,28.88,ENE,61,7.6,11.0,99,0.00,,---,0.00,VWS V14.01,2013-02-28 10:29:00,
2013-02-28 04:34:00,30.9,30.7,28.91,NNE,12,8.3,10.1,99,0.00,,---,0.00,VWS V14.01,2013-02-28 10:34:00,
2013-02-28 04:39:00,30.9,30.7,28.91,NNE,31,7.6,8.3,99,0.00,,---,0.00,VWS V14.01,2013-02-28 10:39:00,
2013-02-28 04:44:00,30.9,30.7,28.91,NNE,17,10.1,10.1,99,0.00,,---,0.00,VWS V14.01,2013-02-28 10:44:00,
2013-02-28 04:49:00,30.9,30.7,28.91,NE,43,12.3,12.3,99,0.00,,---,0.00,VWS V14.01,2013-02-28 10:49:00,
2013-02-28 04:54:00,30.9,29.9,28.91,NNE,22,6.3,8.1,96,0.00,,---,0.00,VWS V14.01,2013-02-28 10:54:00,
2013-02-28 04:59:00,30.9,29.9,28.91,NE,37,11.9,13.2,96,0.00,,---,0.00,VWS V14.01,2013-02-28 10:59:00,
2013-02-28 05:04:00,30.9,29.9,28.91,NNE,26,8.3,8.3,96,0.00,,---,0.00,VWS V14.01,2013-02-28 11:04:00,
2013-02-28 05:09:00,30.9,29.9,28.91,ENE,59,11.4,13.2,96,0.00,,---,0.00,VWS V14.01,2013-02-28 11:09:00,
2013-02-28 05:14:00,30.7,29.7,28.91,NNE,23,6.7,8.7,96,0.00,,---,0.00,VWS V14.01,2013-02-28 11:14:00,
2013-02-28 05:19:00,30.7,29.0,28.91,ENE,60,8.1,10.5,93,0.00,,---,0.00,VWS V14.01,2013-02-28 11:19:00,
2013-02-28 05:24:00,30.7,29.0,28.91,NE,38,8.1,11.4,93,0.00,,---,0.00,VWS V14.01,2013-02-28 11:24:00,
2013-02-28 05:29:00,30.7,29.0,28.91,NE,42,8.3,11.0,93,0.00,,---,0.00,VWS V14.01,2013-02-28 11:29:00,
2013-02-28 05:34:00,30.6,28.8,28.91,NE,48,8.1,8.7,93,0.00,,---,0.00,VWS V14.01,2013-02-28 11:34:00,
2013-02-28 05:39:00,30.6,28.8,28.91,NE,55,5.8,9.2,93,0.00,,---,0.00,VWS V14.01,2013-02-28 11:39:00,
2013-02-28 05:44:00,30.6,28.0,28.94,NE,36,13.2,13.2,90,0.00,,---,0.00,VWS V14.01,2013-02-28 11:44:00,
2013-02-28 05:49:00,30.6,28.0,28.94,NNE,32,8.3,10.1,90,0.00,,---,0.00,VWS V14.01,2013-02-28 11:49:00,
2013-02-28 05:54:00,30.6,28.0,28.94,NE,55,11.0,11.0,90,0.00,,---,0.00,VWS V14.01,2013-02-28 11:54:00,
2013-02-28 05:59:00,30.4,27.8,28.94,NNE,30,6.3,6.7,90,0.00,,---,0.00,VWS V14.01,2013-02-28 11:59:00,
2013-02-28 06:04:00,30.4,27.8,28.94,North,357,6.7,7.6,90,0.00,,---,0.00,VWS V14.01,2013-02-28 12:04:00,
2013-02-28 06:09:00,30.2,28.4,28.94,NE,36,5.8,5.8,93,0.00,,---,0.00,VWS V14.01,2013-02-28 12:09:00,
2013-02-28 06:14:00,30.2,28.4,28.94,NW,323,3.6,6.3,93,0.00,,---,0.00,VWS V14.01,2013-02-28 12:14:00,
2013-02-28 06:19:00,30.2,28.4,28.94,North,353,10.1,10.5,93,0.00,,---,0.00,VWS V14.01,2013-02-28 12:19:00,
2013-02-28 06:24:00,30.0,28.2,28.94,NNE,22,10.1,13.2,93,0.00,,---,0.00,VWS V14.01,2013-02-28 12:24:00,
2013-02-28 06:29:00,30.0,29.0,28.94,NE,45,8.1,8.7,96,0.00,,---,0.00,VWS V14.01,2013-02-28 12:29:00,
2013-02-28 06:34:00,29.8,28.8,28.94,NNE,21,6.3,8.1,96,0.00,,---,0.00,VWS V14.01,2013-02-28 12:34:00,
2013-02-28 06:39:00,29.8,28.8,28.94,NE,40,5.8,7.6,96,0.00,,---,0.00,VWS V14.01,2013-02-28 12:39:00,
2013-02-28 06:44:00,29.7,28.7,28.94,NE,51,5.4,10.5,96,0.00,,---,0.00,VWS V14.01,2013-02-28 12:44:00,
2013-02-28 06:49:00,29.7,29.4,28.94,NNE,20,8.3,10.5,99,0.00,,---,0.00,VWS V14.01,2013-02-28 12:49:00,
2013-02-28 06:54:00,29.5,29.5,28.94,NE,56,4.9,5.4,100,0.00,,---,0.00,VWS V14.01,2013-02-28 12:54:00,
2013-02-28 06:59:00,29.5,29.5,28.94,NE,50,11.9,11.9,100,0.00,,---,0.00,VWS V14.01,2013-02-28 12:59:00,
2013-02-28 07:04:00,29.5,29.5,28.94,ENE,63,11.4,11.4,100,0.00,,---,0.00,VWS V14.01,2013-02-28 13:04:00,
2013-02-28 07:09:00,29.3,29.3,28.94,NE,50,7.6,7.6,100,0.00,,---,0.00,VWS V14.01,2013-02-28 13:09:00,
2013-02-28 07:14:00,29.3,29.3,28.94,NE,39,8.1,10.1,100,0.00,,---,0.00,VWS V14.01,2013-02-28 13:14:00,
2013-02-28 07:19:00,29.5,29.5,28.97,NE,52,8.1,8.1,100,0.00,,---,0.00,VWS V14.01,2013-02-28 13:19:00,
2013-02-28 07:24:00,29.5,29.5,28.97,NE,34,8.3,8.3,100,0.00,,---,0.00,VWS V14.01,2013-02-28 13:24:00,
2013-02-28 07:29:00,29.5,29.5,28.97,NE,42,10.1,10.1,100,0.00,,---,0.00,VWS V14.01,2013-02-28 13:29:00,
2013-02-28 07:34:00,29.5,29.5,28.97,NE,54,10.1,10.1,100,0.00,,---,0.00,VWS V14.01,2013-02-28 13:34:00,
2013-02-28 07:39:00,29.3,29.3,28.97,NNE,16,8.7,11.0,100,0.00,,---,0.00,VWS V14.01,2013-02-28 13:39:00,
2013-02-28 07:44:00,29.3,29.3,28.97,NNE,18,8.3,8.3,100,0.00,,---,0.00,VWS V14.01,2013-02-28 13:44:00,
2013-02-28 07:49:00,29.5,29.5,28.97,NE,37,8.3,8.3,100,0.00,,---,0.00,VWS V14.01,2013-02-28 13:49:00,
2013-02-28 07:54:00,29.5,29.5,28.97,North,353,8.3,8.7,100,0.00,,---,0.00,VWS V14.01,2013-02-28 13:54:00,
2013-02-28 07:59:00,29.7,29.7,28.97,North,353,7.6,7.6,100,0.00,,---,0.00,VWS V14.01,2013-02-28 13:59:00,
2013-02-28 08:04:00,29.5,29.2,28.97,NE,35,7.6,7.6,99,0.00,,---,0.00,VWS V14.01,2013-02-28 14:04:00,
2013-02-28 08:09:00,29.7,29.4,28.97,NNE,24,8.1,8.1,99,0.00,,---,0.00,VWS V14.01,2013-02-28 14:09:00,
2013-02-28 08:14:00,29.7,29.4,28.97,NE,36,7.6,9.6,99,0.00,,---,0.00,VWS V14.01,2013-02-28 14:14:00,
2013-02-28 08:19:00,29.8,28.8,28.97,East,89,8.7,11.0,96,0.00,,---,0.00,VWS V14.01,2013-02-28 14:19:00,
2013-02-28 08:24:00,29.8,28.8,28.97,ENE,58,10.5,11.0,96,0.00,,---,0.00,VWS V14.01,2013-02-28 14:24:00,
2013-02-28 08:29:00,30.4,28.6,28.97,North,4,11.4,11.4,93,0.00,,---,0.00,VWS V14.01,2013-02-28 14:29:00,
2013-02-28 08:34:00,31.3,24.3,28.97,ENE,57,12.3,12.3,75,0.00,,---,0.00,VWS V14.01,2013-02-28 14:34:00,
2013-02-28 08:39:00,32.0,23.0,28.97,NE,39,8.1,8.1,69,0.00,,---,0.00,VWS V14.01,2013-02-28 14:39:00,
2013-02-28 08:44:00,32.5,23.5,28.97,NNE,33,10.1,10.1,69,0.00,,---,0.00,VWS V14.01,2013-02-28 14:44:00,
2013-02-28 08:49:00,32.5,20.2,29.00,ENE,68,13.2,15.4,60,0.00,,---,0.00,VWS V14.01,2013-02-28 14:49:00,
2013-02-28 08:54:00,31.6,19.4,29.00,NE,34,8.3,8.3,60,0.00,,---,0.00,VWS V14.01,2013-02-28 14:54:00,
2013-02-28 08:59:00,31.1,18.9,29.00,NE,46,8.7,10.5,60,0.00,,---,0.00,VWS V14.01,2013-02-28 14:59:00,
2013-02-28 09:04:00,30.9,22.0,29.00,NE,53,11.0,11.0,69,0.00,,---,0.00,VWS V14.01,2013-02-28 15:04:00,
2013-02-28 09:09:00,30.7,21.8,29.00,NE,51,13.2,13.2,69,0.00,,---,0.00,VWS V14.01,2013-02-28 15:09:00,
2013-02-28 09:14:00,30.7,21.8,29.00,North,0,11.0,11.0,69,0.00,,---,0.00,VWS V14.01,2013-02-28 15:14:00,
2013-02-28 09:19:00,30.7,21.8,29.00,NNE,33,11.0,11.0,69,0.00,,---,0.00,VWS V14.01,2013-02-28 15:19:00,
2013-02-28 09:24:00,30.7,18.5,29.00,NNE,24,7.2,7.2,60,0.00,,---,0.00,VWS V14.01,2013-02-28 15:24:00,
2013-02-28 09:29:00,30.7,18.5,29.00,NE,47,8.3,8.3,60,0.00,,---,0.00,VWS V14.01,2013-02-28 15:29:00,
2013-02-28 09:34:00,30.6,18.3,29.00,NE,56,12.8,14.1,60,0.00,,---,0.00,VWS V14.01,2013-02-28 15:34:00,
2013-02-28 09:39:00,30.6,21.6,29.00,ENE,69,8.1,10.5,69,0.00,,---,0.00,VWS V14.01,2013-02-28 15:39:00,
2013-02-28 09:44:00,30.7,18.5,29.00,North,357,10.5,12.3,60,0.00,,---,0.00,VWS V14.01,2013-02-28 15:44:00,
2013-02-28 09:49:00,30.9,18.7,29.00,ENE,70,10.1,10.1,60,0.00,,---,0.00,VWS V14.01,2013-02-28 15:49:00,
2013-02-28 09:54:00,30.7,21.8,29.00,ENE,58,11.0,13.2,69,0.00,,---,0.00,VWS V14.01,2013-02-28 15:54:00,
2013-02-28 09:58:00,30.6,21.6,29.00,ENE,61,10.1,10.1,69,0.00,,---,0.00,VWS V14.01,2013-02-28 15:58:00,
2013-02-28 10:03:00,30.4,21.4,29.00,NE,40,13.2,15.0,69,0.00,,---,0.00,VWS V14.01,2013-02-28 16:03:00,
2013-02-28 10:08:00,30.2,21.3,29.00,NNE,32,8.1,15.0,69,0.00,,---,0.00,VWS V14.01,2013-02-28 16:08:00,
2013-02-28 10:13:00,30.0,21.1,29.00,NNE,18,14.1,15.4,69,0.00,,---,0.00,VWS V14.01,2013-02-28 16:13:00,
2013-02-28 10:18:00,30.0,23.1,29.00,NE,34,8.7,10.5,75,0.00,,---,0.00,VWS V14.01,2013-02-28 16:18:00,
2013-02-28 10:23:00,29.8,22.9,29.00,North,3,8.7,13.2,75,0.00,,---,0.00,VWS V14.01,2013-02-28 16:23:00,
2013-02-28 10:28:00,29.8,20.9,29.00,North,9,10.5,11.0,69,0.00,,---,0.00,VWS V14.01,2013-02-28 16:28:00,
2013-02-28 10:33:00,29.7,20.8,29.03,NE,36,11.0,11.0,69,0.00,,---,0.00,VWS V14.01,2013-02-28 16:33:00,
2013-02-28 10:38:00,29.7,22.7,29.03,North,8,11.0,15.0,75,0.00,,---,0.00,VWS V14.01,2013-02-28 16:38:00,
2013-02-28 10:43:00,29.7,20.8,29.03,NNE,33,7.6,9.2,69,0.00,,---,0.00,VWS V14.01,2013-02-28 16:43:00,
2013-02-28 10:48:00,29.8,20.9,29.03,ENE,58,10.5,11.0,69,0.00,,---,0.00,VWS V14.01,2013-02-28 16:48:00,
2013-02-28 10:53:00,29.8,22.9,29.03,North,357,8.7,8.7,75,0.00,,---,0.00,VWS V14.01,2013-02-28 16:53:00,
2013-02-28 11:00:00,30.0,21.1,29.03,NNE,27,7.6,8.3,69,0.00,,---,0.00,VWS V14.01,2013-02-28 17:00:00,
2013-02-28 11:05:00,30.0,21.1,29.03,NNE,31,8.3,8.3,69,0.00,,---,0.00,VWS V14.01,2013-02-28 17:05:00,
2013-02-28 11:09:00,29.7,20.8,29.03,North,10,11.0,15.4,69,0.00,,---,0.00,VWS V14.01,2013-02-28 17:09:00,
2013-02-28 11:14:00,29.5,20.6,29.03,ENE,67,10.1,11.0,69,0.00,,---,0.00,VWS V14.01,2013-02-28 17:14:00,
2013-02-28 11:19:00,29.5,20.6,29.03,ENE,61,8.7,10.1,69,0.00,,---,0.00,VWS V14.01,2013-02-28 17:19:00,
2013-02-28 11:24:00,29.7,20.8,29.03,NE,40,8.3,8.3,69,0.00,,---,0.00,VWS V14.01,2013-02-28 17:24:00,
2013-02-28 11:30:00,30.0,21.1,29.03,ENE,60,15.0,15.0,69,0.00,,---,0.00,VWS V14.01,2013-02-28 17:30:00,
2013-02-28 11:35:00,29.8,20.9,29.03,NE,45,12.8,16.3,69,0.00,,---,0.00,VWS V14.01,2013-02-28 17:35:00,
2013-02-28 11:40:00,29.7,20.8,29.03,NE,43,8.1,10.5,69,0.00,,---,0.00,VWS V14.01,2013-02-28 17:40:00,
2013-02-28 11:45:00,29.5,20.6,29.03,NE,56,8.3,8.3,69,0.00,,---,0.00,VWS V14.01,2013-02-28 17:45:00,
2013-02-28 11:50:00,29.5,20.6,29.03,ENE,78,8.3,13.2,69,0.00,,---,0.00,VWS V14.01,2013-02-28 17:50:00,
2013-02-28 11:55:00,29.5,20.6,29.03,NE,48,10.1,13.2,69,0.00,,---,0.00,VWS V14.01,2013-02-28 17:55:00,
2013-02-28 12:00:00,29.5,20.6,29.03,NE,56,8.3,8.3,69,0.00,,---,0.00,VWS V14.01,2013-02-28 18:00:00,
2013-02-28 12:05:00,29.5,20.6,29.03,ENE,62,10.5,15.0,69,0.00,,---,0.00,VWS V14.01,2013-02-28 18:05:00,
2013-02-28 12:09:00,29.8,20.9,29.03,NNE,26,8.3,8.3,69,0.00,,---,0.00,VWS V14.01,2013-02-28 18:09:00,
2013-02-28 12:14:00,30.0,17.8,29.03,NNE,24,8.1,9.6,60,0.00,,---,0.00,VWS V14.01,2013-02-28 18:14:00,
2013-02-28 12:19:00,30.2,18.0,29.03,NE,56,10.5,11.4,60,0.00,,---,0.00,VWS V14.01,2013-02-28 18:19:00,
2013-02-28 12:24:00,30.2,18.0,29.03,North,4,7.6,8.7,60,0.00,,---,0.00,VWS V14.01,2013-02-28 18:24:00,
2013-02-28 12:29:00,30.4,18.2,29.03,NE,45,6.3,6.3,60,0.00,,---,0.00,VWS V14.01,2013-02-28 18:29:00,
2013-02-28 12:34:00,30.4,18.2,29.03,ENE,64,8.3,8.3,60,0.00,,---,0.00,VWS V14.01,2013-02-28 18:34:00,
2013-02-28 12:39:00,30.2,18.0,29.03,ENE,58,8.3,10.1,60,0.00,,---,0.00,VWS V14.01,2013-02-28 18:39:00,
2013-02-28 12:44:00,30.2,18.0,29.03,NNE,19,5.4,7.6,60,0.00,,---,0.00,VWS V14.01,2013-02-28 18:44:00,
2013-02-28 12:49:00,30.4,18.2,29.03,North,7,8.7,8.7,60,0.00,,---,0.00,VWS V14.01,2013-02-28 18:49:00,
2013-02-28 12:54:00,30.4,18.2,29.03,NNE,33,8.3,8.7,60,0.00,,---,0.00,VWS V14.01,2013-02-28 18:54:00,
2013-02-28 12:59:00,30.2,18.0,29.06,ENE,57,10.1,11.0,60,0.00,,---,0.00,VWS V14.01,2013-02-28 18:59:00,
2013-02-28 13:04:00,30.2,18.0,29.06,NNE,26,8.7,11.0,60,0.00,,---,0.00,VWS V14.01,2013-02-28 19:04:00,
2013-02-28 13:09:00,30.2,18.0,29.06,NE,43,6.3,8.7,60,0.00,,---,0.00,VWS V14.01,2013-02-28 19:09:00,
2013-02-28 13:14:00,30.4,18.2,29.06,North,4,8.1,13.2,60,0.00,,---,0.00,VWS V14.01,2013-02-28 19:14:00,
2013-02-28 13:19:00,30.2,18.0,29.06,NE,42,8.1,12.8,60,0.00,,---,0.00,VWS V14.01,2013-02-28 19:19:00,
2013-02-28 13:24:00,30.4,18.2,29.06,NNE,20,12.8,12.8,60,0.00,,---,0.00,VWS V14.01,2013-02-28 19:24:00,
2013-02-28 13:29:00,30.6,18.3,29.03,NE,50,9.2,9.2,60,0.00,,---,0.00,VWS V14.01,2013-02-28 19:29:00,
2013-02-28 13:34:00,30.7,18.5,29.03,ENE,59,10.5,12.8,60,0.00,,---,0.00,VWS V14.01,2013-02-28 19:34:00,
2013-02-28 13:39:00,30.7,18.5,29.03,NNE,18,8.3,15.0,60,0.00,,---,0.00,VWS V14.01,2013-02-28 19:39:00,
2013-02-28 13:44:00,30.7,18.5,29.03,ENE,68,14.5,14.5,60,0.00,,---,0.00,VWS V14.01,2013-02-28 19:44:00,
2013-02-28 13:49:00,30.7,18.5,29.03,NE,43,11.0,15.4,60,0.00,,---,0.00,VWS V14.01,2013-02-28 19:49:00,
2013-02-28 13:54:00,30.6,18.3,29.03,NE,36,7.6,8.3,60,0.00,,---,0.00,VWS V14.01,2013-02-28 19:54:00,
2013-02-28 13:59:00,30.7,18.5,29.03,NNE,33,8.1,11.4,60,0.00,,---,0.00,VWS V14.01,2013-02-28 19:59:00,
2013-02-28 14:04:00,30.7,18.5,29.03,ENE,63,8.3,11.0,60,0.00,,---,0.00,VWS V14.01,2013-02-28 20:04:00,
2013-02-28 14:09:00,31.3,19.0,29.03,ENE,72,8.3,8.3,60,0.00,,---,0.00,VWS V14.01,2013-02-28 20:09:00,
2013-02-28 14:14:00,31.8,19.5,29.03,NE,46,6.3,10.5,60,0.00,,---,0.00,VWS V14.01,2013-02-28 20:14:00,
2013-02-28 14:19:00,31.8,19.5,29.03,NE,43,8.1,11.0,60,0.00,,---,0.00,VWS V14.01,2013-02-28 20:19:00,
2013-02-28 14:24:00,31.6,19.4,29.03,NNE,29,13.2,15.4,60,0.00,,---,0.00,VWS V14.01,2013-02-28 20:24:00,
2013-02-28 14:29:00,31.5,19.2,29.03,ENE,63,12.3,15.4,60,0.00,,---,0.00,VWS V14.01,2013-02-28 20:29:00,
2013-02-28 14:34:00,31.3,19.0,29.03,ENE,58,8.3,8.3,60,0.00,,---,0.00,VWS V14.01,2013-02-28 20:34:00,
2013-02-28 14:39:00,31.5,16.8,29.03,NE,43,11.0,13.6,54,0.00,,---,0.00,VWS V14.01,2013-02-28 20:39:00,
2013-02-28 14:44:00,31.6,19.4,29.03,North,357,10.5,10.5,60,0.00,,---,0.00,VWS V14.01,2013-02-28 20:44:00,
2013-02-28 14:49:00,31.5,16.8,29.03,ENE,65,8.7,11.0,54,0.00,,---,0.00,VWS V14.01,2013-02-28 20:49:00,
2013-02-28 14:54:00,31.8,19.5,29.03,North,357,6.3,8.1,60,0.00,,---,0.00,VWS V14.01,2013-02-28 20:54:00,
2013-02-28 14:59:00,32.0,17.2,29.03,NNE,28,8.7,10.1,54,0.00,,---,0.00,VWS V14.01,2013-02-28 20:59:00,
2013-02-28 15:04:00,31.8,17.1,29.06,NNE,24,4.9,8.1,54,0.00,,---,0.00,VWS V14.01,2013-02-28 21:04:00,
2013-02-28 15:09:00,31.8,17.1,29.06,NE,49,10.5,11.4,54,0.00,,---,0.00,VWS V14.01,2013-02-28 21:09:00,
2013-02-28 15:14:00,32.0,17.2,29.06,ENE,61,13.2,17.0,54,0.00,,---,0.00,VWS V14.01,2013-02-28 21:14:00,
2013-02-28 15:19:00,31.8,17.1,29.06,ENE,64,5.8,8.1,54,0.00,,---,0.00,VWS V14.01,2013-02-28 21:19:00,
2013-02-28 15:24:00,31.6,16.9,29.06,NE,49,10.5,11.4,54,0.00,,---,0.00,VWS V14.01,2013-02-28 21:24:00,
2013-02-28 15:29:00,31.8,17.1,29.06,NNE,25,9.2,10.5,54,0.00,,---,0.00,VWS V14.01,2013-02-28 21:29:00,
2013-02-28 15:34:00,31.8,17.1,29.06,NNE,18,8.1,10.5,54,0.00,,---,0.00,VWS V14.01,2013-02-28 21:34:00,
2013-02-28 15:39:00,31.6,16.9,29.06,North,10,8.1,8.1,54,0.00,,---,0.00,VWS V14.01,2013-02-28 21:39:00,
2013-02-28 15:44:00,31.6,16.9,29.06,NE,49,6.3,13.2,54,0.00,,---,0.00,VWS V14.01,2013-02-28 21:44:00,
2013-02-28 15:49:00,31.1,16.4,29.06,North,4,8.1,10.1,54,0.00,,---,0.00,VWS V14.01,2013-02-28 21:49:00,
2013-02-28 15:54:00,31.1,16.4,29.06,North,1,3.6,5.4,54,0.00,,---,0.00,VWS V14.01,2013-02-28 21:54:00,
2013-02-28 15:59:00,31.1,16.4,29.06,North,6,8.1,8.7,54,0.00,,---,0.00,VWS V14.01,2013-02-28 21:59:00,
2013-02-28 16:04:00,31.1,16.4,29.06,NNW,345,5.4,5.4,54,0.00,,---,0.00,VWS V14.01,2013-02-28 22:04:00,
2013-02-28 16:09:00,31.1,16.4,29.06,NE,56,5.8,6.3,54,0.00,,---,0.00,VWS V14.01,2013-02-28 22:09:00,
2013-02-28 16:14:00,30.9,16.2,29.06,ENE,57,8.3,8.7,54,0.00,,---,0.00,VWS V14.01,2013-02-28 22:14:00,
2013-02-28 16:19:00,30.7,16.1,29.06,North,2,5.4,8.1,54,0.00,,---,0.00,VWS V14.01,2013-02-28 22:19:00,
2013-02-28 16:24:00,30.7,16.1,29.06,NE,52,15.0,15.0,54,0.00,,---,0.00,VWS V14.01,2013-02-28 22:24:00,
2013-02-28 16:29:00,30.2,15.6,29.06,NNE,32,8.7,10.5,54,0.00,,---,0.00,VWS V14.01,2013-02-28 22:29:00,
2013-02-28 16:34:00,30.2,15.6,29.06,NE,56,5.8,7.6,54,0.00,,---,0.00,VWS V14.01,2013-02-28 22:34:00,
2013-02-28 16:39:00,30.0,15.4,29.06,NNE,14,8.7,12.8,54,0.00,,---,0.00,VWS V14.01,2013-02-28 22:39:00,
2013-02-28 16:44:00,30.0,15.4,29.06,NNE,12,5.8,5.8,54,0.00,,---,0.00,VWS V14.01,2013-02-28 22:44:00,
2013-02-28 16:49:00,29.8,15.2,29.06,NNE,25,7.6,8.1,54,0.00,,---,0.00,VWS V14.01,2013-02-28 22:49:00,
2013-02-28 16:54:00,29.7,15.1,29.06,ENE,59,10.1,11.0,54,0.00,,---,0.00,VWS V14.01,2013-02-28 22:54:00,
2013-02-28 16:59:00,29.5,14.9,29.06,NE,42,6.3,8.7,54,0.00,,---,0.00,VWS V14.01,2013-02-28 22:59:00,
2013-02-28 17:04:00,29.5,14.9,29.09,ENE,61,8.1,8.1,54,0.00,,---,0.00,VWS V14.01,2013-02-28 23:04:00,
2013-02-28 17:09:00,29.3,14.7,29.09,NNE,22,5.8,7.6,54,0.00,,---,0.00,VWS V14.01,2013-02-28 23:09:00,
2013-02-28 17:14:00,29.1,14.6,29.09,ENE,70,9.2,9.2,54,0.00,,---,0.00,VWS V14.01,2013-02-28 23:14:00,
2013-02-28 17:19:00,29.1,14.6,29.09,NE,52,7.6,8.3,54,0.00,,---,0.00,VWS V14.01,2013-02-28 23:19:00,
2013-02-28 17:24:00,28.9,14.4,29.09,NE,55,10.1,10.1,54,0.00,,---,0.00,VWS V14.01,2013-02-28 23:24:00,
2013-02-28 17:29:00,28.8,14.2,29.09,North,4,7.2,7.6,54,0.00,,---,0.00,VWS V14.01,2013-02-28 23:29:00,
2013-02-28 17:34:00,28.8,14.2,29.06,NNE,31,5.8,5.8,54,0.00,,---,0.00,VWS V14.01,2013-02-28 23:34:00,
2013-02-28 17:39:00,28.6,14.1,29.06,ENE,67,5.8,6.3,54,0.00,,---,0.00,VWS V14.01,2013-02-28 23:39:00,
2013-02-28 17:44:00,28.6,14.1,29.06,NE,45,7.6,7.6,54,0.00,,---,0.00,VWS V14.01,2013-02-28 23:44:00,
2013-02-28 17:49:00,28.6,14.1,29.09,ENE,61,8.3,8.3,54,0.00,,---,0.00,VWS V14.01,2013-02-28 23:49:00,
2013-02-28 17:54:00,28.4,13.9,29.09,NE,55,12.3,12.3,54,0.00,,---,0.00,VWS V14.01,2013-02-28 23:54:00,
2013-02-28 17:59:00,28.4,13.9,29.09,NE,47,8.3,8.3,54,0.00,,---,0.00,VWS V14.01,2013-02-28 23:59:00,
2013-02-28 18:04:00,28.2,13.7,29.09,NE,44,10.1,10.1,54,0.00,,---,0.00,VWS V14.01,2013-03-01 00:04:00,
2013-02-28 18:09:00,28.0,13.6,29.09,NE,49,8.1,8.3,54,0.00,,---,0.00,VWS V14.01,2013-03-01 00:09:00,
2013-02-28 18:14:00,28.0,13.6,29.09,ENE,57,7.6,8.3,54,0.00,,---,0.00,VWS V14.01,2013-03-01 00:14:00,
2013-02-28 18:19:00,27.9,13.4,29.09,NE,35,12.3,12.3,54,0.00,,---,0.00,VWS V14.01,2013-03-01 00:19:00,
2013-02-28 18:24:00,27.9,13.4,29.09,NE,51,11.0,13.2,54,0.00,,---,0.00,VWS V14.01,2013-03-01 00:24:00,
2013-02-28 18:29:00,27.9,13.4,29.09,North,357,8.1,8.1,54,0.00,,---,0.00,VWS V14.01,2013-03-01 00:29:00,
2013-02-28 18:34:00,27.7,13.2,29.09,ENE,74,11.0,11.4,54,0.00,,---,0.00,VWS V14.01,2013-03-01 00:34:00,
2013-02-28 18:39:00,27.7,13.2,29.09,NE,40,6.3,8.1,54,0.00,,---,0.00,VWS V14.01,2013-03-01 00:39:00,
2013-02-28 18:44:00,27.5,13.1,29.09,NE,55,11.9,13.2,54,0.00,,---,0.00,VWS V14.01,2013-03-01 00:44:00,
2013-02-28 18:49:00,27.5,13.1,29.09,NE,49,7.6,7.6,54,0.00,,---,0.00,VWS V14.01,2013-03-01 00:49:00,
2013-02-28 18:54:00,27.5,13.1,29.09,NE,56,5.4,6.3,54,0.00,,---,0.00,VWS V14.01,2013-03-01 00:54:00,
2013-02-28 18:59:00,27.3,12.9,29.09,NE,45,8.1,10.5,54,0.00,,---,0.00,VWS V14.01,2013-03-01 00:59:00,
2013-02-28 19:03:00,27.3,12.9,29.12,ENE,63,8.1,8.1,54,0.00,,---,0.00,VWS V14.01,2013-03-01 01:03:00,
2013-02-28 19:08:00,27.1,12.7,29.12,NE,56,8.1,8.3,54,0.00,,---,0.00,VWS V14.01,2013-03-01 01:08:00,
2013-02-28 19:13:00,27.1,12.7,29.12,NE,55,7.6,10.1,54,0.00,,---,0.00,VWS V14.01,2013-03-01 01:13:00,
2013-02-28 19:18:00,27.1,12.7,29.12,ENE,57,8.1,8.3,54,0.00,,---,0.00,VWS V14.01,2013-03-01 01:18:00,
2013-02-28 19:23:00,27.0,12.6,29.12,NE,45,8.3,8.3,54,0.00,,---,0.00,VWS V14.01,2013-03-01 01:23:00,
2013-02-28 19:28:00,27.0,12.6,29.12,ENE,57,8.1,8.7,54,0.00,,---,0.00,VWS V14.01,2013-03-01 01:28:00,
2013-02-28 19:33:00,27.0,12.6,29.12,ENE,70,10.1,10.1,54,0.00,,---,0.00,VWS V14.01,2013-03-01 01:33:00,
2013-02-28 19:38:00,26.8,12.4,29.12,NE,41,10.5,11.4,54,0.00,,---,0.00,VWS V14.01,2013-03-01 01:38:00,
2013-02-28 19:43:00,26.6,13.4,29.12,ENE,69,10.5,11.0,57,0.00,,---,0.00,VWS V14.01,2013-03-01 01:43:00,
2013-02-28 19:48:00,26.4,13.3,29.12,NE,49,12.8,12.8,57,0.00,,---,0.00,VWS V14.01,2013-03-01 01:48:00,
2013-02-28 19:53:00,26.2,13.1,29.12,NE,56,10.5,15.4,57,0.00,,---,0.00,VWS V14.01,2013-03-01 01:53:00,
2013-02-28 19:58:00,26.2,13.1,29.12,ENE,57,8.3,12.8,57,0.00,,---,0.00,VWS V14.01,2013-03-01 01:58:00,
2013-02-28 20:03:00,26.1,12.9,29.12,ENE,59,8.7,10.5,57,0.00,,---,0.00,VWS V14.01,2013-03-01 02:03:00,
2013-02-28 20:08:00,26.1,12.9,29.12,ENE,75,7.6,12.8,57,0.00,,---,0.00,VWS V14.01,2013-03-01 02:08:00,
2013-02-28 20:13:00,25.9,12.8,29.12,ENE,74,17.4,17.4,57,0.00,,---,0.00,VWS V14.01,2013-03-01 02:13:00,
2013-02-28 20:18:00,25.7,12.6,29.15,East,80,12.8,12.8,57,0.00,,---,0.00,VWS V14.01,2013-03-01 02:18:00,
2013-02-28 20:23:00,25.5,12.4,29.15,ENE,57,4.0,11.9,57,0.00,,---,0.00,VWS V14.01,2013-03-01 02:23:00,
2013-02-28 20:28:00,25.5,12.4,29.15,East,82,5.4,8.3,57,0.00,,---,0.00,VWS V14.01,2013-03-01 02:28:00,
2013-02-28 20:33:00,25.3,12.2,29.15,East,90,12.8,14.1,57,0.00,,---,0.00,VWS V14.01,2013-03-01 02:33:00,
2013-02-28 20:38:00,25.2,12.1,29.15,ENE,62,13.2,13.2,57,0.00,,---,0.00,VWS V14.01,2013-03-01 02:38:00,
2013-02-28 20:43:00,25.0,11.9,29.15,NE,51,10.1,14.5,57,0.00,,---,0.00,VWS V14.01,2013-03-01 02:43:00,
2013-02-28 20:48:00,24.8,11.7,29.15,ENE,65,12.8,13.6,57,0.00,,---,0.00,VWS V14.01,2013-03-01 02:48:00,
2013-02-28 20:53:00,24.6,11.6,29.15,ENE,70,11.0,12.3,57,0.00,,---,0.00,VWS V14.01,2013-03-01 02:53:00,
2013-02-28 20:58:00,24.4,11.4,29.15,ENE,76,10.1,11.0,57,0.00,,---,0.00,VWS V14.01,2013-03-01 02:58:00,
2013-02-28 21:03:00,24.3,11.2,29.15,ENE,74,12.3,12.3,57,0.00,,---,0.00,VWS V14.01,2013-03-01 03:03:00,
2013-02-28 21:08:00,24.1,11.1,29.15,NE,49,11.4,15.9,57,0.00,,---,0.00,VWS V14.01,2013-03-01 03:08:00,
2013-02-28 21:13:00,24.1,11.1,29.15,ENE,65,8.7,11.9,57,0.00,,---,0.00,VWS V14.01,2013-03-01 03:13:00,
2013-02-28 21:18:00,24.1,11.1,29.15,ENE,60,10.1,10.5,57,0.00,,---,0.00,VWS V14.01,2013-03-01 03:18:00,
2013-02-28 21:23:00,23.9,10.9,29.15,ENE,67,11.0,13.2,57,0.00,,---,0.00,VWS V14.01,2013-03-01 03:23:00,
2013-02-28 21:28:00,23.9,10.9,29.15,ENE,72,15.0,15.9,57,0.00,,---,0.00,VWS V14.01,2013-03-01 03:28:00,
2013-02-28 21:33:00,23.7,10.7,29.18,NE,51,12.3,13.2,57,0.00,,---,0.00,VWS V14.01,2013-03-01 03:33:00,
2013-02-28 21:38:00,23.7,10.7,29.18,NE,49,10.5,13.2,57,0.00,,---,0.00,VWS V14.01,2013-03-01 03:38:00,
2013-02-28 21:43:00,23.5,10.6,29.18,ENE,66,13.2,13.2,57,0.00,,---,0.00,VWS V14.01,2013-03-01 03:43:00,
2013-02-28 21:48:00,23.5,10.6,29.18,ENE,58,10.5,11.4,57,0.00,,---,0.00,VWS V14.01,2013-03-01 03:48:00,
2013-02-28 21:53:00,23.5,10.6,29.18,NE,53,8.1,12.3,57,0.00,,---,0.00,VWS V14.01,2013-03-01 03:53:00,
2013-02-28 21:58:00,23.5,10.6,29.18,NE,52,7.6,8.7,57,0.00,,---,0.00,VWS V14.01,2013-03-01 03:58:00,
2013-02-28 22:03:00,23.4,10.4,29.18,NE,49,10.5,12.8,57,0.00,,---,0.00,VWS V14.01,2013-03-01 04:03:00,
2013-02-28 22:08:00,23.4,10.4,29.18,NNE,32,7.6,8.7,57,0.00,,---,0.00,VWS V14.01,2013-03-01 04:08:00,
2013-02-28 22:13:00,23.4,10.4,29.18,NE,44,9.6,9.6,57,0.00,,---,0.00,VWS V14.01,2013-03-01 04:13:00,
2013-02-28 22:18:00,23.2,10.2,29.18,ENE,65,8.3,10.5,57,0.00,,---,0.00,VWS V14.01,2013-03-01 04:18:00,
2013-02-28 22:23:00,23.2,10.2,29.18,NE,50,8.3,8.7,57,0.00,,---,0.00,VWS V14.01,2013-03-01 04:23:00,
2013-02-28 22:28:00,23.2,10.2,29.18,ENE,72,11.0,15.0,57,0.00,,---,0.00,VWS V14.01,2013-03-01 04:28:00,
2013-02-28 22:33:00,23.2,10.2,29.18,ENE,61,8.3,10.1,57,0.00,,---,0.00,VWS V14.01,2013-03-01 04:33:00,
2013-02-28 22:38:00,23.2,10.2,29.18,NE,56,11.0,11.0,57,0.00,,---,0.00,VWS V14.01,2013-03-01 04:38:00,
2013-02-28 22:43:00,23.2,10.2,29.18,NE,50,11.0,11.9,57,0.00,,---,0.00,VWS V14.01,2013-03-01 04:43:00,
2013-02-28 22:48:00,23.0,11.2,29.18,East,84,10.1,10.1,60,0.00,,---,0.00,VWS V14.01,2013-03-01 04:48:00,
2013-02-28 22:53:00,23.0,11.2,29.18,ENE,64,10.1,10.1,60,0.00,,---,0.00,VWS V14.01,2013-03-01 04:53:00,
2013-02-28 22:58:00,23.0,11.2,29.18,ENE,66,8.3,8.7,60,0.00,,---,0.00,VWS V14.01,2013-03-01 04:58:00,
2013-02-28 23:00:00,23.0,11.2,29.18,ENE,71,6.3,7.6,60,0.00,,---,0.00,VWS V14.01,2013-03-01 05:00:00,
2013-02-28 23:05:00,23.0,11.2,29.18,ENE,73,10.5,11.0,60,0.00,,---,0.00,VWS V14.01,2013-03-01 05:05:00,
2013-02-28 23:06:00,23.0,11.2,29.18,ENE,71,8.7,8.7,60,0.00,,---,0.00,VWS V14.01,2013-03-01 05:06:00,
2013-02-28 23:11:00,23.0,11.2,29.18,ENE,68,9.2,9.2,60,0.00,,---,0.00,VWS V14.01,2013-03-01 05:11:00,
2013-02-28 23:16:00,23.0,11.2,29.18,ENE,63,6.3,6.3,60,0.00,,---,0.00,VWS V14.01,2013-03-01 05:16:00,
2013-02-28 23:21:00,22.8,11.0,29.18,ENE,69,11.0,11.0,60,0.00,,---,0.00,VWS V14.01,2013-03-01 05:21:00,
2013-02-28 23:26:00,22.8,11.0,29.18,East,90,8.3,8.3,60,0.00,,---,0.00,VWS V14.01,2013-03-01 05:26:00,
2013-02-28 23:31:00,22.8,11.0,29.18,ESE,116,8.3,9.6,60,0.00,,---,0.00,VWS V14.01,2013-03-01 05:31:00,
2013-02-28 23:36:00,22.8,11.0,29.18,ENE,62,8.3,9.2,60,0.00,,---,0.00,VWS V14.01,2013-03-01 05:36:00,
2013-02-28 23:41:00,22.8,11.0,29.18,ENE,65,5.8,5.8,60,0.00,,---,0.00,VWS V14.01,2013-03-01 05:41:00,
2013-02-28 23:46:00,22.8,11.0,29.15,ENE,74,6.7,6.7,60,0.00,,---,0.00,VWS V14.01,2013-03-01 05:46:00,
2013-02-28 23:51:00,22.8,11.0,29.15,ENE,72,7.6,8.1,60,0.00,,---,0.00,VWS V14.01,2013-03-01 05:51:00,
2013-02-28 23:56:00,22.8,11.0,29.15,ENE,70,5.8,10.1,60,0.00,,---,0.00,VWS V14.01,2013-03-01 05:56:00,